Skip Page Navigation
NASA JPL Caltech
NASA Logo - Jet Propulsion Laboratory + View the NASA Portal
+ Center for Near-Earth Object Studies
JPL Home Earth Solar System Stars & Galaxies Technology
JPL Solar System Dynamics
BODIES ORBITS EPHEMERIDES TOOLS PHYSICAL DATA DISCOVERY FAQ SITE MAP
JPL Small-Body Database Browser
Search: [ help ]  
52024 (2002 OH4)
Classification: Main-belt Asteroid          SPK-ID: 2052024
Ephemeris | Orbit Diagram | Orbital Elements | Mission Design | Physical Parameters | Discovery Circumstances ]

[ show orbit diagram ]
Orbital Elements at Epoch 2459396.5 (2021-Jul-01.0) TDB
Reference: JPL 36 (heliocentric ecliptic J2000)
 Element Value Uncertainty (1-sigma)   Units 
e .1172822507131048 3.79e-08  
a 2.9967741481996 1.9683e-08 au
q 2.645305731219903 1.1225e-07 au
i 8.990227527981792 3.8467e-06 deg
node 268.6525834631464 2.7011e-05 deg
peri 99.64494631912633 3.2322e-05 deg
M 219.5553490207854 2.0108e-05 deg
tp 2460135.734368066394
(2023-Jul-10.23436807)
0.00010975 TDB
period 1894.870118928826
5.19
1.8668e-05
5.111e-08
d
yr
n .1899866362363183 1.8718e-09 deg/d
Q 3.348242565179297 2.1991e-08 au
  Orbit Determination Parameters
   # obs. used (total)      1341  
   data-arc span      8597 days (23.54 yr)  
   first obs. used      1997-11-30  
   last obs. used      2021-06-14  
   planetary ephem.      DE441  
   SB-pert. ephem.      SB441-N16  
   condition code      0  
   norm. resid. RMS      .48684  
   source      ORB  
   producer      Otto Matic  
   solution date      2021-Jul-08 08:07:30  

Additional Information
 Earth MOID = 1.66294 au 
 Jupiter MOID = 2.20527 au 
 T_jup = 3.225 
[ show covariance matrix ]

Ephemeris | Orbit Diagram | Orbital Elements | Mission Design | Physical Parameters | Discovery Circumstances ]

Physical Parameter Table
Parameter Symbol Value Units Sigma Reference Notes
absolute magnitude H 13.85   n/a MPCxxxxx  
diameter diameter 6.615 km 0.236 urn:nasa:pds:neowise_diameters_albedos::2.0[mainbelt] (http://adsabs.harvard.edu/abs/2011ApJ...741...68M)  
geometric albedo albedo 0.147   0.035 urn:nasa:pds:neowise_diameters_albedos::2.0[mainbelt] (http://adsabs.harvard.edu/abs/2011ApJ...741...68M)  

52024 (2002 OH4)          Discovered 2002-Jul-17 by LINEAR at Socorro
Reference: 20021120/Numbers.arcLast Updated: 2004-04-19
Ephemeris | Orbit Diagram | Orbital Elements | Mission Design | Physical Parameters | Discovery Circumstances ]
ABOUT SSD CREDITS/AWARDS PRIVACY/COPYRIGHT GLOSSARY LINKS
FirstGov 2021-Aug-04 16:01 UT
(server date/time)  
NASA Home Page
Site Manager:   Ryan S. Park
Webmaster  Alan B. Chamberlin